Miscellaneous Local Product
Issued by NWS Hastings, NE

Home | Current Version | Previous Version | Text Only | Print | Product List | Glossary On
Versions: 1 2 3 4 5 6 7 8 9 10 11 12 13 14 15 16 17 18 19 20 21 22 23 24 25 26 27 28 29 30 31 32 33 34 35 36 37 38 39 40 41 42 43 44 45 46 47 48 49 50
662
AXUS43 KGID 241602
MISGRI

GID CWA HOURLY WEATHER ROUNDUP
NATIONAL WEATHER SERVICE HASTINGS NE
1100 AM CDT THU MAY 24 2018

NOTE: "FAIR" INDICATES FEW OR NO CLOUDS BELOW 12,000 FEET WITH NO
SIGNIFICANT WEATHER AND/OR OBSTRUCTIONS TO VISIBILITY.

...SOUTH CENTRAL NEBRASKA...

CITY           SKY/WX    TMP DP  RH WIND       PRES   REMARKS
GRAND ISLAND   SUNNY     78  62  57 S13       30.00F
KEARNEY        SUNNY     76  61  59 S15       30.00F
HASTINGS       MOSUNNY   76  61  59 S12G22    30.01F
ORD            SUNNY     76  64  66 SE12      29.96S
YORK           MOSUNNY   79  63  57 S14       30.02S
AURORA         MOSUNNY   78  60  53 S15       30.00F
LEXINGTON      SUNNY     74  62  65 S13       29.98S
HOLDREGE       SUNNY     75  60  59 SE12      29.99F
HEBRON         SUNNY     82  59  44 S6        30.03S

...NEBRASKA PANHANDLE...

CITY           SKY/WX    TMP DP  RH WIND       PRES   REMARKS
CHADRON        SUNNY     74  53  48 SW15      29.97S
ALLIANCE       SUNNY     73  53  49 W9        30.02F
SCOTTSBLUFF    SUNNY     72  52  49 W10       30.04F
SIDNEY         SUNNY     75  53  46 NW10      30.06S

...WESTERN AND NORTH CENTRAL NEBRASKA...

CITY           SKY/WX    TMP DP  RH WIND       PRES   REMARKS
VALENTINE      SUNNY     76  61  59 SW14G22   29.95F
AINSWORTH      MOSUNNY   73  64  73 S16       29.96S
ONEILL         SUNNY     78  64  61 SE13G21   29.95F
BROKEN BOW     SUNNY     74  62  66 SE14G22   29.98F
IMPERIAL       MOSUNNY   74  56  53 VRB5      29.99S
NORTH PLATTE   MOSUNNY   74  61  63 VRB3      29.98S
MCCOOK         MOSUNNY   73  60  63 SW9       29.97F

...EASTERN NEBRASKA...

CITY           SKY/WX    TMP DP  RH WIND       PRES   REMARKS
NORFOLK        SUNNY     78  65  63 SE14      29.96F
SO SIOUX CITY  CLOUDY    78  67  68 S10       29.98F
TEKAMAH        CLOUDY    78  68  71 S13       30.01F
COLUMBUS       MOSUNNY   80  63  55 S14       30.01F
ALBION         SUNNY     78  66  68 SE15      29.98F
OMAHA EPPLEY   CLOUDY    78  67  68 S10       30.03F
OFFUTT AFB     PTSUNNY   78  68  70 SE12G17   30.02F
MILLARD        MOSUNNY   80  68  67 S6        30.03S
LINCOLN        SUNNY     81  65  58 S10       30.02F
NEBRASKA CITY  MOSUNNY   81  67  62 S9        30.05S
BEATRICE       SUNNY     82  64  53 S6        30.03F
FALLS CITY     SUNNY     81  68  64 S12G21    30.04F

...NORTHERN KANSAS...

CITY           SKY/WX    TMP DP  RH WIND       PRES   REMARKS
GOODLAND       SUNNY     76  59  55 W10       30.00F
HILL CITY      SUNNY     78  58  49 SW13G23   30.01S
NORTON         SUNNY     81  55  41 S14G21    29.98F
PHILLIPSBURG   SUNNY     75  59  57 S10       30.01S
SMITH CENTER   SUNNY     73  59  60 S10       30.02S
HAYS           CLOUDY    73  60  63 S17       30.04R
RUSSELL        MOSUNNY   73  62  68 S22       30.03R
CONCORDIA      CLOUDY    80  62  54 SE14      30.01F
SALINA         CLOUDY    79  65  62 S10       30.05R
TOPEKA         CLOUDY    79  71  76 SE3       30.06F



USA.gov is the U.S. government's official web portal to all federal, state and local government web resources and services.